When you browse on this site, cookies collect data to enhance your experience and personalize the content and advertising you see.
Visit our Privacy Policy to learn more. By continuing to use the site, you agree to this use of cookies and data.
  • In Hungary
  • List of Countries
  • For 7 days
  • Water Temperature
  • Weather Map
  • News
  • Weather Widgets
  • user-avatar
    Login

    Hourly Weather Slazowo

    Today, 25 May, Monday

    Time Temperature Precipitation Wind Pressure Humidity
    00:00 +8°C° 0.1 mm 4 mps 759 mmHg 93%
    01:00 +8°C° 0.1 mm 4 mps 759 mmHg 93%
    02:00 +8°C° 0 mm 4 mps 759 mmHg 93%
    03:00 +7°C° 0 mm 4 mps 759 mmHg 93%
    04:00 +7°C° 0 mm 4 mps 759 mmHg 93%
    05:00 +7°C° 0.3 mm 4 mps 759 mmHg 94%
    06:00 +8°C° 0.3 mm 4 mps 759 mmHg 94%
    07:00 +8°C° 0.3 mm 4 mps 759 mmHg 94%
    08:00 +10°C° 0.5 mm 4 mps 760 mmHg 91%
    09:00 +11°C° 0.5 mm 4 mps 760 mmHg 87%
    10:00 +12°C° 0.5 mm 4 mps 760 mmHg 84%
    11:00 +13°C° 0.5 mm 4 mps 760 mmHg 82%
    12:00 +13°C° 0.5 mm 4 mps 761 mmHg 80%
    13:00 +14°C° 0.5 mm 5 mps 761 mmHg 78%
    14:00 +14°C° 0.3 mm 5 mps 761 mmHg 76%
    15:00 +15°C° 0.3 mm 5 mps 761 mmHg 74%
    16:00 +15°C° 0.3 mm 5 mps 761 mmHg 72%
    17:00 +14°C° 0.1 mm 4 mps 762 mmHg 75%
    18:00 +13°C° 0.1 mm 4 mps 762 mmHg 79%
    19:00 +12°C° 0.1 mm 3 mps 763 mmHg 82%
    20:00 +11°C° 0 mm 3 mps 763 mmHg 86%
    21:00 +9°C° 0 mm 3 mps 764 mmHg 90%
    22:00 +8°C° 0 mm 3 mps 764 mmHg 94%
    23:00 +7°C° 0 mm 3 mps 764 mmHg 95%

    Tomorrow, 26 May, Tuesday

    Time Temperature Precipitation Wind Pressure Humidity
    00:00 +7°C° 0 mm 2 mps 764 mmHg 95%
    01:00 +7°C° 0 mm 2 mps 765 mmHg 95%
    02:00 +6°C° 0 mm 2 mps 765 mmHg 95%
    03:00 +6°C° 0 mm 2 mps 765 mmHg 96%
    04:00 +6°C° 0 mm 2 mps 765 mmHg 96%
    05:00 +8°C° 0 mm 2 mps 766 mmHg 91%
    06:00 +10°C° 0 mm 2 mps 766 mmHg 86%
    07:00 +12°C° 0 mm 2 mps 766 mmHg 80%
    08:00 +13°C° 0 mm 3 mps 767 mmHg 74%
    09:00 +14°C° 0 mm 3 mps 767 mmHg 67%
    10:00 +17°C° 0 mm 3 mps 767 mmHg 61%
    11:00 +18°C° 0 mm 4 mps 767 mmHg 58%
    12:00 +18°C° 0 mm 4 mps 767 mmHg 56%
    13:00 +19°C° 0 mm 4 mps 766 mmHg 53%
    14:00 +19°C° 0 mm 4 mps 766 mmHg 55%
    15:00 +18°C° 0 mm 4 mps 766 mmHg 57%
    16:00 +17°C° 0 mm 5 mps 766 mmHg 58%
    17:00 +17°C° 0 mm 4 mps 766 mmHg 65%
    18:00 +14°C° 0 mm 4 mps 766 mmHg 72%
    19:00 +13°C° 0 mm 3 mps 766 mmHg 78%
    20:00 +11°C° 0 mm 3 mps 766 mmHg 83%
    21:00 +10°C° 0 mm 3 mps 766 mmHg 88%
    22:00 +8°C° 0 mm 2 mps 766 mmHg 93%
    23:00 +7°C° 0 mm 2 mps 766 mmHg 92%

    Day after tomorrow, 27 May, Wednesday

    Time Temperature Precipitation Wind Pressure Humidity
    00:00 +7°C° 0 mm 2 mps 766 mmHg 92%
    01:00 +8°C° 0 mm 1 mps 766 mmHg 92%
    02:00 +7°C° 0 mm 1 mps 766 mmHg 92%
    03:00 +7°C° 0 mm 1 mps 766 mmHg 92%
    04:00 +7°C° 0 mm 1 mps 765 mmHg 92%
    05:00 +9°C° 0 mm 1 mps 766 mmHg 86%
    06:00 +10°C° 0 mm 1 mps 766 mmHg 80%
    07:00 +12°C° 0 mm 1 mps 766 mmHg 74%
    08:00 +14°C° 0 mm 1 mps 765 mmHg 68%
    09:00 +15°C° 0 mm 2 mps 765 mmHg 62%
    10:00 +17°C° 0 mm 2 mps 765 mmHg 56%
    11:00 +18°C° 0 mm 2 mps 765 mmHg 56%
    12:00 +19°C° 0 mm 3 mps 764 mmHg 57%
    13:00 +19°C° 0 mm 4 mps 764 mmHg 57%
    14:00 +19°C° 0.1 mm 4 mps 764 mmHg 60%
    15:00 +19°C° 0.1 mm 4 mps 763 mmHg 62%
    16:00 +19°C° 0.1 mm 5 mps 763 mmHg 65%
    17:00 +17°C° 0.1 mm 4 mps 763 mmHg 70%
    18:00 +14°C° 0.1 mm 4 mps 763 mmHg 76%
    19:00 +13°C° 0.1 mm 3 mps 763 mmHg 81%
    20:00 +11°C° 0 mm 3 mps 763 mmHg 84%
    21:00 +10°C° 0 mm 3 mps 763 mmHg 86%
    22:00 +8°C° 0 mm 3 mps 763 mmHg 88%
    23:00 +8°C° 0 mm 3 mps 763 mmHg 89%

    28 May, Thursday

    Time Temperature Precipitation Wind Pressure Humidity
    00:00 +6°C° 0 mm 4 mps 763 mmHg 90%
    01:00 +6°C° 0 mm 4 mps 762 mmHg 91%
    02:00 +5°C° 0 mm 4 mps 762 mmHg 92%
    03:00 +5°C° 0 mm 4 mps 762 mmHg 92%
    04:00 +5°C° 0 mm 4 mps 762 mmHg 93%
    05:00 +6°C° 0 mm 5 mps 762 mmHg 88%
    06:00 +7°C° 0 mm 5 mps 762 mmHg 83%
    07:00 +9°C° 0 mm 5 mps 762 mmHg 78%
    08:00 +10°C° 0 mm 6 mps 762 mmHg 75%
    09:00 +11°C° 0 mm 6 mps 762 mmHg 72%
    10:00 +14°C° 0 mm 6 mps 762 mmHg 68%
    11:00 +14°C° 0.2 mm 6 mps 761 mmHg 67%
    12:00 +15°C° 0.2 mm 5 mps 761 mmHg 66%
    13:00 +16°C° 0.2 mm 5 mps 761 mmHg 66%
    14:00 +16°C° 0.2 mm 5 mps 761 mmHg 65%
    15:00 +16°C° 0.2 mm 5 mps 761 mmHg 64%
    16:00 +16°C° 0.2 mm 5 mps 761 mmHg 63%
    17:00 +14°C° 0 mm 5 mps 761 mmHg 67%
    18:00 +13°C° 0 mm 4 mps 761 mmHg 70%
    19:00 +12°C° 0 mm 3 mps 761 mmHg 74%
    20:00 +11°C° 0 mm 3 mps 761 mmHg 80%
    21:00 +9°C° 0 mm 3 mps 761 mmHg 85%
    22:00 +7°C° 0 mm 2 mps 761 mmHg 90%
    23:00 +7°C° 0 mm 2 mps 761 mmHg 90%

    29 May, Friday

    Time Temperature Precipitation Wind Pressure Humidity
    00:00 +7°C° 0 mm 2 mps 761 mmHg 90%
    01:00 +7°C° 0 mm 1 mps 761 mmHg 90%
    02:00 +7°C° 0 mm 1 mps 761 mmHg 89%
    03:00 +7°C° 0 mm 1 mps 760 mmHg 88%
    04:00 +7°C° 0 mm 1 mps 760 mmHg 87%
    05:00 +8°C° 0 mm 2 mps 760 mmHg 83%
    06:00 +9°C° 0 mm 3 mps 760 mmHg 79%
    07:00 +11°C° 0 mm 4 mps 760 mmHg 75%
    08:00 +12°C° 0.2 mm 4 mps 759 mmHg 69%
    09:00 +13°C° 0.2 mm 5 mps 759 mmHg 63%
    10:00 +14°C° 0.2 mm 6 mps 759 mmHg 57%
    11:00 +15°C° 0.1 mm 6 mps 759 mmHg 54%
    12:00 +15°C° 0.1 mm 6 mps 758 mmHg 51%
    13:00 +15°C° 0.1 mm 7 mps 758 mmHg 48%
    14:00 +15°C° 0.1 mm 7 mps 758 mmHg 53%
    15:00 +14°C° 0.1 mm 7 mps 758 mmHg 58%
    16:00 +12°C° 0.1 mm 8 mps 757 mmHg 62%
    17:00 +11°C° 0 mm 7 mps 757 mmHg 66%
    18:00 +10°C° 0 mm 6 mps 757 mmHg 69%
    19:00 +10°C° 0 mm 5 mps 757 mmHg 73%
    20:00 +8°C° 0 mm 4 mps 757 mmHg 76%
    21:00 +7°C° 0 mm 4 mps 757 mmHg 80%
    22:00 +7°C° 0 mm 3 mps 758 mmHg 84%
    23:00 +7°C° 0 mm 3 mps 758 mmHg 82%

    30 May, Saturday

    Time Temperature Precipitation Wind Pressure Humidity
    00:00 +7°C° 0 mm 3 mps 757 mmHg 81%
    01:00 +7°C° 0 mm 3 mps 757 mmHg 80%
    02:00 +8°C° 0 mm 3 mps 757 mmHg 77%
    03:00 +8°C° 0 mm 3 mps 757 mmHg 75%
    04:00 +9°C° 0 mm 3 mps 757 mmHg 73%
    05:00 +9°C° 0 mm 3 mps 757 mmHg 74%
    06:00 +10°C° 0 mm 4 mps 757 mmHg 76%
    07:00 +11°C° 0 mm 4 mps 757 mmHg 78%
    08:00 +11°C° 0.1 mm 4 mps 756 mmHg 77%
    09:00 +12°C° 0.1 mm 4 mps 756 mmHg 77%
    10:00 +12°C° 0.1 mm 4 mps 756 mmHg 77%
    11:00 +13°C° 0 mm 5 mps 756 mmHg 76%
    12:00 +14°C° 0 mm 5 mps 756 mmHg 74%
    13:00 +14°C° 0 mm 6 mps 756 mmHg 73%
    14:00 +15°C° 0 mm 7 mps 756 mmHg 70%
    15:00 +15°C° 0 mm 7 mps 756 mmHg 68%
    16:00 +16°C° 0 mm 7 mps 756 mmHg 65%
    17:00 +15°C° 0 mm 6 mps 755 mmHg 69%
    18:00 +14°C° 0 mm 5 mps 755 mmHg 72%
    19:00 +14°C° 0 mm 5 mps 755 mmHg 76%
    20:00 +13°C° 0 mm 4 mps 755 mmHg 80%
    21:00 +11°C° 0 mm 4 mps 755 mmHg 84%
    22:00 +10°C° 0 mm 4 mps 755 mmHg 89%
    23:00 +10°C° 0.1 mm 4 mps 754 mmHg 90%
    Show more